Weather History for Slidell, LA

Change the Weather History Date:

Sunday, March 30, 2014

  Actual Average (KNEW) Record (KNEW)
Temperature  
Mean Temperature 56 °F 65 °F  
Max Temperature 72 °F 75 °F 86 °F (2002)
Min Temperature 43 °F 56 °F 36 °F (1964)
Degree Days  
Heating Degree Days 8 3  
Month to date heating degree days 134  
Since 1 July heating degree days 1243  
Cooling Degree Days 0 3  
Month to date cooling degree days 60  
Year to date cooling degree days 97  
Growing Degree Days 6 (Base 50)    
Moisture  
Dew Point 41 °F    
Average Humidity 62    
Maximum Humidity 89    
Minimum Humidity 27    
Precipitation  
Precipitation 0.00 in 0.15 in 2.25 in (1999)
Month to date precipitation 4.40  
Year to date precipitation 14.85  
Snow  
Snow 0.00 in - - ()
Month to date snowfall  
Since 1 July snowfall  
Snow Depth -    
Sea Level Pressure  
Sea Level Pressure 30.20 in    
Wind  
Wind Speed 4 mph (NNW)    
Max Wind Speed 13 mph    
Max Gust Speed -    
Visibility 10 miles    
Events      
T = Trace of Precipitation, MM = Missing Value Source: NWS Daily Summary

Daily Weather History Graph

Daily Weather History Graph

Search for Another Location

Airport:

Trip Planner

Search our weather history database for the weather conditions in past years. The results will help you decide how hot, cold, wet, or windy it might be!

Date:

Astronomy

Mar. 30, 2014 Rise Set
Actual Time 6:50 AM CDT 7:16 PM CDT
Civil Twilight 6:26 AM CDT 7:41 PM CDT
Nautical Twilight 5:58 AM CDT 8:09 PM CDT
Astronomical Twilight 5:29 AM CDT 8:38 PM CDT
Moon 6:36 AM CDT (3/30) 7:27 PM CDT (3/30)
Length of Visible Light 13h 14m
Length of Day
12h 26m
Waning Crescent, 0% of the Moon is Illuminated
Mar 30
Waning Crescent
Mar 30
New
Apr 7
First Quarter
Apr 15
Full
Apr 22
Last Quarter

Hourly Weather History & Observations

Time (CDT) Temp. Dew Point Humidity Pressure Visibility Wind Dir Wind Speed Gust Speed Precip Events Conditions
12:53 AM 53.1 °F 39.9 °F 61% 30.22 in 10.0 mi North 8.1 mph - N/A   Clear
1:53 AM 51.1 °F 39.9 °F 66% 30.20 in 10.0 mi Calm Calm - N/A   Clear
2:53 AM 46.0 °F 42.1 °F 86% 30.20 in 10.0 mi Calm Calm - N/A   Clear
3:53 AM 46.0 °F 42.1 °F 86% 30.20 in 10.0 mi Calm Calm - N/A   Clear
4:53 AM 44.1 °F 41.0 °F 89% 30.21 in 10.0 mi Calm Calm - N/A   Clear
5:53 AM 43.0 °F 39.0 °F 86% 30.22 in 10.0 mi Calm Calm - N/A   Clear
6:53 AM 43.0 °F 39.9 °F 89% 30.24 in 10.0 mi Calm Calm - N/A   Clear
7:53 AM 46.9 °F 43.0 °F 86% 30.27 in 10.0 mi North 8.1 mph - N/A   Clear
8:53 AM 52.0 °F 41.0 °F 66% 30.27 in 10.0 mi NNE 10.4 mph - N/A   Clear
9:53 AM 57.9 °F 37.9 °F 47% 30.28 in 10.0 mi North 12.7 mph - N/A   Clear
10:53 AM 62.1 °F 36.0 °F 38% 30.27 in 10.0 mi NNE 8.1 mph - N/A   Clear
11:53 AM 64.0 °F 33.1 °F 31% 30.27 in 10.0 mi Variable 3.5 mph - N/A   Clear
12:53 PM 68.0 °F 33.1 °F 27% 30.25 in 10.0 mi Variable 4.6 mph - N/A   Clear
1:53 PM 70.0 °F 34.0 °F 27% 30.21 in 10.0 mi Calm Calm - N/A   Clear
2:53 PM 66.9 °F 43.0 °F 42% 30.18 in 10.0 mi WSW 9.2 mph - N/A   Clear
3:53 PM 68.0 °F 42.1 °F 39% 30.17 in 10.0 mi SSW 10.4 mph - N/A   Clear
4:53 PM 68.0 °F 41.0 °F 37% 30.16 in 10.0 mi SW 6.9 mph - N/A   Clear
5:53 PM 66.0 °F 39.9 °F 38% 30.16 in 10.0 mi Variable 5.8 mph - N/A   Clear
6:53 PM 64.9 °F 42.1 °F 43% 30.15 in 10.0 mi Calm Calm - N/A   Clear
7:53 PM 55.9 °F 46.9 °F 72% 30.15 in 10.0 mi Calm Calm - N/A   Clear
8:53 PM 52.0 °F 45.0 °F 77% 30.15 in 10.0 mi Calm Calm - N/A   Clear
9:53 PM 50.0 °F 45.0 °F 83% 30.16 in 10.0 mi Calm Calm - N/A   Clear
10:53 PM 48.9 °F 45.0 °F 86% 30.16 in 10.0 mi Calm Calm - N/A   Clear
11:53 PM 46.9 °F 43.0 °F 86% 30.15 in 10.0 mi Calm Calm - N/A   Clear